This is the latest recevied weather packets stored in our database for station/object N6GPM. If no packets are shown the sender has not sent any weather packets the latest 10 day(s).
| Time | Temp. | Humidity | Pressure | Rain* | Wind** | Luminosity | Snow |
|---|---|---|---|---|---|---|---|
| 1788573653 | 23.89° C | 47% | 1016.6 hPa | 0 mm | - | 14 W/m² | - |
| 1788573351 | 24.44° C | 47% | 1016.3 hPa | 0 mm | - | 19 W/m² | - |
| 1788573046 | 24.44° C | 46% | 1016.3 hPa | 0 mm | - | 24 W/m² | - |
| 1788572740 | 25° C | 46% | 1016.4 hPa | 0 mm | - | 31 W/m² | - |
| 1788572457 | 25° C | 45% | 1016.1 hPa | 0 mm | - | 37 W/m² | - |
| 1788572132 | 25° C | 46% | 1016.3 hPa | 0 mm | - | 44 W/m² | - |
| 1788571827 | 25° C | 46% | 1016.3 hPa | 0 mm | - | 52 W/m² | - |
| 1788571522 | 25.56° C | 46% | 1016.3 hPa | 0 mm | - | 61 W/m² | - |
| 1788571219 | 25.56° C | 46% | 1016.6 hPa | 0 mm | - | 70 W/m² | - |
| 1788570915 | 25.56° C | 46% | 1016.4 hPa | 0 mm | - | 80 W/m² | - |
| 1788570635 | 25.56° C | 46% | 1016.4 hPa | 0 mm | - | 91 W/m² | - |
| 1788570309 | 26.11° C | 46% | 1016.4 hPa | 0 mm | - | 100 W/m² | - |
| 1788570005 | 26.11° C | 46% | 1016.2 hPa | 0 mm | - | 109 W/m² | - |
| 1788569701 | 26.67° C | 46% | 1016.4 hPa | 0 mm | - | 122 W/m² | - |
| 1788569395 | 26.67° C | 46% | 1016.4 hPa | 0 mm | - | 134 W/m² | - |
| 1788569091 | 26.67° C | 45% | 1016.5 hPa | 0 mm | - | 152 W/m² | - |
| 1788568786 | 26.67° C | 46% | 1016.2 hPa | 0 mm | - | 170 W/m² | - |
| 1788568482 | 26.67° C | 44% | 1016.3 hPa | 0 mm | - | 200 W/m² | - |
| 1788568178 | 27.22° C | 44% | 1016.3 hPa | 0 mm | - | 225 W/m² | - |
| 1788567877 | 27.22° C | 44% | 1016.2 hPa | 0 mm | - | 246 W/m² | - |
| 1788567572 | 27.78° C | 43% | 1016.2 hPa | 0 mm | - | 268 W/m² | - |
| 1788567267 | 27.78° C | 42% | 1016.2 hPa | 0 mm | - | 289 W/m² | - |
| 1788566961 | 27.78° C | 42% | 1016.1 hPa | 0 mm | - | 308 W/m² | - |
| 1788566657 | 27.78° C | 42% | 1016.3 hPa | 0 mm | - | 329 W/m² | - |
| 1788566352 | 28.33° C | 40% | 1016.2 hPa | 0 mm | - | 348 W/m² | - |
* Rain latest hour (hover to see other rain measurements)
** Current wind speed in m/s (hover to see current wind gust speed)